Location: Leuk
(46.3174°N, 7.6341°E)
Time: 15:09:17
(UTC+00:00)

Cosmos 1606 - Pass Details

Date: 09 March 2021
Orbit: 501 x 528 km, 82.5° (Epoch: 14 April)

Event Time Altitude Azimuth Distance (km) Brightness Sun altitude
Exits shadow 04:48:30 17° 285° (WNW) 1,401 4.3 -12.1°
Maximum altitude 04:48:47 17° 291° (WNW) 1,396 4.3 -12.0°
Drops below altitude 10° 04:51:23 10° 333° (NNW) 1,781 5.2 -11.6°
Sets 04:54:10 0° 354° (N) 2,673 6.3 -11.1°
